EGXCEGCN

Guest
Details From EGXC - RAF Coningsby
To EGCN - Doncaster Sheffield
Flight Number -
Tags generated
Created
Modified
Stats Distance 40 nm / 75 km
Max Altitude 1,000 ft / 305 m
Waypoints 3
Social Downloads 4
Likes 0
Share VATSIM

Download

Looking for another format? Having issues loading an existing format? Contact us
Advertisement - Login to hide

Notes

Basic altitude profile: - Ascent Rate: 2500ft/min - Ascent Speed: 250kts - Cruise Altitude: 35000ft - Cruise Speed: 420kts - Descent Rate: 1500ft/min - Descent Speed: 250kts Options: - Use NATs: yes - Use PACOTS: yes - Use low airways: no - Use high airways: yes

Route

EGXC ARTIX EGCN

ID Type Via Altitude Latitude Longitude Leg Dist Tot Dist Heading (true) Name
O EGXC APT - 0 ft / 0 m 53.09316˚ -0.16613˚ - 0 nm - RAF Coningsby
ARTIX FIX - 1,000 ft / 305 m 53.39500˚ -1.01917˚ 35 nm 35 nm 301° / 300° -
O EGCN APT - 0 ft / 0 m 53.47465˚ -1.00447˚ 4 nm 40 nm 6° / 6° Doncaster Sheffield

Altitude Profile

Advertisement - Login to hide

EGXC

Details ICAO EGXC (QCY)
Name RAF Coningsby
Region United Kingdom
Timezone Europe/London (UTC+1.0)
Stats Elevation 25 ft / 8 m (AMSL)
Location 53.093165° -0.166128°
Runways 1
Magnetic Variation 0.575° W

METAR

EGXC 211850Z 04008KT CAVOK 17/06 Q1016 BLU

Decode

TAF

TAF EGXC 211626Z 2118/2212 04008KT CAVOK BECMG 2200/2203 6000 HZ PROB30 TEMPO 2203/2207 3000 BR SCT003 BECMG 2207/2209 9999 NSW FEW020

Decode

Departure Runways

ID Width Length Bearing (true) Bearing (mag) Surface Threshold Offset Overrun Length
08 200 ft / 61 m 8,962 ft / 2,732 m 71.85° 72.42° Concrete 0 ft / 0 m 0 ft / 0 m
26 200 ft / 61 m 8,962 ft / 2,732 m 251.89° 252.46° Concrete 0 ft / 0 m 0 ft / 0 m

EGCN

Details ICAO EGCN (DSA)
Name Doncaster Sheffield
Region United Kingdom
Timezone Europe/London (UTC+1.0)
Stats Elevation 55 ft / 17 m (AMSL)
Location 53.474649° -1.004474°
Runways 1
Magnetic Variation 0.930° W

METAR

EGCN 211920Z 04007KT CAVOK 18/11 Q1017

Decode

TAF

TAF EGCN 211701Z 2118/2218 07010KT 9999 FEW040 BECMG 2118/2121 01004KT PROB40 2200/2205 5000 BR PROB30 2205/2209 6000 BKN008

Decode

Destination Runways

ID Width Length Bearing (true) Bearing (mag) Surface Threshold Offset Overrun Length
02 197 ft / 60 m 8,975 ft / 2,736 m 17.62° 18.55° Asphalt 486 ft / 148 m 13 ft / 4 m
20 197 ft / 60 m 8,975 ft / 2,736 m 197.63° 198.56° Asphalt 0 ft / 0 m 0 ft / 0 m

Approach Navaids

Runway Type Ident Frequency Range Bearing (true) Bearing (mag) Slope Elevation
20 Localiser IFNL 110.95 MHz 18 nm / 33 km 197.61° 198.54° - 55 ft / 17 m (AMSL)
20 Glidescope IFNL 110.95 MHz 10 nm / 19 km 197.63° 198.56° 3.00° 55 ft / 17 m (AMSL)
20 DME IFNL 110.95 MHz 18 nm / 33 km - - - 11 ft / 3 m (AMSL)

Popular Alternatives